Starlink 31506

operational
NORAD ID: 59259 Int'l Des: 2024-050 Owner: SPXS Country: US Constellation: starlink
LEOCIRCULAR

About Starlink 31506

Description loading...

Live Position

Loading 3D Globe...

Upcoming Passes

Altitude History

Altitude vs Time

uPlot chart will show altitude changes over time

Two-Line Element Set

1 59259U 24050F 25259.33276050 -.00000622 00000-0 -88636-5 0 9998
2 59259 53.1561 270.8668 0001359 64.9148 295.1994 15.30191521 83851
Epoch: Sep 16, 2025 • Age: 24 hours

Current Status

Altitude 475.2 km
Velocity 7.63 km/s
Sub-Earth Point 21.94°N, 172.96°E
Launch Date Mar 19, 2024
Age 1.4 years
Type internet

Technical Details

Classification Payload
Mass 730.00 kg
Dry Mass 700.00 kg
Total Mass 730.00 kg
Length 0.30 m
Diameter 4.10 m
Span 29.00 m
Shape Box + pan
Manufacturer SPXS
Bus Type Starlink V2M
Phase Status In Orbit
Owner/State SPXS/US

Large Constellations

Loading constellations...